{"data":{"norad_id":63903,"intl_designator":"2025-095P","name":"STARLINK-34097","alt_names":[],"object_type":"PAYLOAD","status":"ACTIVE","operator":null,"country":"US","launch_date":"2025-05-10","launch_site_code":"AFETR","launch_vehicle":null,"mission":null,"orbit_class":"UNKNOWN","rcs_meters":null,"size_class":null,"mass_kg":null,"dimensions":null,"purposes":["comms"],"wikipedia_slug":null,"has_3d_model":false,"image_url":null,"decayed_at":null,"tle_current":{"epoch":"2026-09-20T23:05:43.533888Z","epoch_age_seconds":107184,"freshness":"FRESH","line1":"1 63903U 25095P   26263.96230942  .00014219  00000+0  52517-3 0  9995","line2":"2 63903  43.0011 153.2959 0001516 267.0997  92.9681 15.27584361 77640","mean_motion":15.27584361,"eccentricity":0.0001516,"inclination_deg":43.0011,"raan_deg":153.2959,"arg_perigee_deg":267.0997,"mean_anomaly_deg":92.9681,"bstar":0.00052517,"rev_number":7764,"period_min":94.266479597718,"perigee_km":481.99588383535,"apogee_km":484.07619150037,"semimajor_km":6861.1730376679,"source":"CELESTRAK","updated_at":"2026-09-21T09:00:35.145580Z"}}}